Regional Weather Roundup
Issued by NWS

Home | Current Version | Previous Version | Graphics & Text | Print | Product List | Glossary On
Versions: 1 2 3 4 5 6 7 8 9 10 11 12 13 14 15 16 17 18 19 20 21 22 23 24 25 26 27
000
ASUS45 KPSR 221210
RWRAZ

ARIZONA HOURLY REGIONAL WEATHER ROUNDUP
NATIONAL WEATHER SERVICE PHOENIX AZ
500 AM MST WED FEB 22 2017

NOTE: FAIR INDICATES FEW OR NO CLOUDS BELOW 12,000 FEET WITH NO
SIGNIFICANT WEATHER AND/OR OBSTRUCTIONS TO VISIBILITY.

AZZ001>003-036-221300-
NORTHWEST ARIZONA

CITY           SKY/WX    TMP DP  RH WIND       PRES   REMARKS
BULLHEAD CITY  MOCLDY    57  54  88 CALM      30.02F
KINGMAN        CLOUDY    46  39  76 SE3       30.07F
6HR MIN TEMP:  46; 6HR MAX TEMP:  54;

$$

AZZ004>008-015-016-018-221300-
NORTH CENTRAL ARIZONA

CITY           SKY/WX    TMP DP  RH WIND       PRES   REMARKS
GRAND CANYON   MOCLDY    42  41  96 S10       30.16F
6HR MIN TEMP:  33; 6HR MAX TEMP:  42;

WILLIAMS       MOCLDY    43  39  87 S17G26    30.16F
PRESCOTT       CLOUDY    46  42  86 CALM      30.14F
6HR MIN TEMP:  42; 6HR MAX TEMP:  50;

FLAGSTAFF      CLOUDY    40  39  97 SW7       30.18F
6HR MIN TEMP:  38; 6HR MAX TEMP:  42;

PAYSON         PTCLDY    43  41  93 CALM      30.19F
PAGE           MOCLDY    47  32  56 CALM      30.01F
6HR MIN TEMP:  46; 6HR MAX TEMP:  55;

$$

AZZ009>014-017-221300-
NORTHEAST ARIZONA

CITY           SKY/WX    TMP DP  RH WIND       PRES   REMARKS
WINSLOW        MOCLDY    38  36  92 CALM      30.12F
6HR MIN TEMP:  38; 6HR MAX TEMP:  46;

SAINT JOHNS    PTCLDY    38  32  79 CALM      30.15F
6HR MIN TEMP:  34; 6HR MAX TEMP:  49;

SHOW LOW       CLEAR     45  34  65 S14       30.19F
$$

AZZ023-221300-
GREATER PHOENIX AREA

CITY           SKY/WX    TMP DP  RH WIND       PRES   REMARKS
PHOENIX        PTCLDY    56  52  86 E6        30.04S
6HR MIN TEMP:  56; 6HR MAX TEMP:  64;

BUCKEYE        CLEAR     52  52 100 N5        30.05F
LUKE AFB       CLEAR     54  54 100 N6        30.04F
6HR MIN TEMP:  54; 6HR MAX TEMP:  60;

DEER VALLEY    CLEAR     54  52  93 CALM      30.05F
6HR MIN TEMP:  54; 6HR MAX TEMP:  59;

SCOTTSDALE     CLEAR     56  51  84 CALM      30.08F
6HR MIN TEMP:  55; 6HR MAX TEMP:  61;

MESA-GATEWAY   CLEAR     52  50  93 E6        30.07S
$$

AZZ027-028-221300-
SOUTHWEST MARICOPA COUNTY AND PINAL COUNTY

CITY           SKY/WX    TMP DP  RH WIND       PRES   REMARKS
CASA GRANDE    NOT AVBL
GILA BEND      FAIR      54  52  93 CALM      30.04S
6HR MIN TEMP:  54; 6HR MAX TEMP:  61;

$$

AZZ503-504-507>509-221300-
SOUTHEAST ARIZONA

CITY           SKY/WX    TMP DP  RH WIND       PRES   REMARKS
TUCSON         CLEAR     51  44  77 SE10      30.11F
6HR MIN TEMP:  51; 6HR MAX TEMP:  60;

DAVIS-MONTHAN  CLEAR     50  44  79 SE9       30.10F
6HR MIN TEMP:  50; 6HR MAX TEMP:  55;

NOGALES        CLEAR     42  37  82 CALM      30.14F
6HR MIN TEMP:  41; 6HR MAX TEMP:  50;

SIERRA VISTA   CLEAR     46  39  76 S6        30.17F
6HR MIN TEMP:  46; 6HR MAX TEMP:  51;

DOUGLAS        CLEAR     37  33  85 N5        30.15F WCI  33
6HR MIN TEMP:  36; 6HR MAX TEMP:  51;

SAFFORD        CLEAR     44  39  82 SE3       30.11F
6HR MIN TEMP:  44; 6HR MAX TEMP:  54; 6HR PCP: TRACE;

$$

AZZ020-021-025-026-031-221300-
SOUTHWEST ARIZONA

CITY           SKY/WX    TMP DP  RH WIND       PRES   REMARKS
YUMA           CLEAR     57  54  89 SE3       30.01F
6HR MIN TEMP:  57; 6HR MAX TEMP:  64;

$$

CAZ031-033-041-043-047-048-061-221300-
SOUTHERN CALIFORNIA

CITY           SKY/WX    TMP DP  RH WIND       PRES   REMARKS
DOWNTOWN L.A.  MOCLDY    53  52  96 CALM      30.14F FOG
6HR MIN TEMP:  53; 6HR MAX TEMP:  60;

L.A. AIRPORT   PTCLDY    55  52  89 W6        30.15S
6HR MIN TEMP:  54; 6HR MAX TEMP:  58;

SAN DIEGO      CLOUDY    59  54  83 N5        30.16S
6HR MIN TEMP:  58; 6HR MAX TEMP:  60;

BURBANK        CLEAR     49  46  90 NW5       30.14S
6HR MIN TEMP:  49; 6HR MAX TEMP:  54;

ONTARIO        CLOUDY    53  52  96 W8        30.13F FOG
6HR MIN TEMP:  51; 6HR MAX TEMP:  57;

RIVERSIDE      MOCLDY    51  49  92 CALM      30.14S
6HR MIN TEMP:  50; 6HR MAX TEMP:  58;

PALM SPRINGS   PTCLDY    55  50  83 SW5       30.02F
6HR MIN TEMP:  55; 6HR MAX TEMP:  64;

EL CENTRO NAS  PTCLDY    56  43  61 W9        30.03F
6HR MIN TEMP:  54; 6HR MAX TEMP:  65;

IMPERIAL       PTCLDY    58  45  62 W5        30.01F
6HR MIN TEMP:  56; 6HR MAX TEMP:  64;

BLYTHE         MOCLDY    58  54  86 W5        30.01F
6HR MIN TEMP:  57; 6HR MAX TEMP:  66;

NEEDLES        MOCLDY    58  51  78 SW7       30.02F
6HR MIN TEMP:  57; 6HR MAX TEMP:  62;

$$

NVZ020-UTZ003-221300-
SOUTHERN NEVADA-UTAH

CITY           SKY/WX    TMP DP  RH WIND       PRES   REMARKS
LAS VEGAS      MOCLDY    57  32  38 S16G24    29.93F
6HR MIN TEMP:  57; 6HR MAX TEMP:  62;

SALT LAKE CITY CLOUDY    36  34  92 SE7       30.04S WCI  30
6HR MIN TEMP:  35; 6HR MAX TEMP:  37; 6HR PCP:  0.03;

$$

NMZ009-TXZ055-221300-
NEW MEXICO-WEST TEXAS

CITY           SKY/WX    TMP DP  RH WIND       PRES   REMARKS
ALBUQUERQUE    CLEAR     43  32  65 SE8       30.14F
6HR MIN TEMP:  43; 6HR MAX TEMP:  53;

EL PASO        PTCLDY    55  32  41 E8        30.11F
6HR MIN TEMP:  54; 6HR MAX TEMP:  69;

$$


........................KEY........................
SKY/WX - SKY CONDITION/WEATHER
TMP    - TEMPERATURE IN FAHRENHEIT
DP     - DEW POINT IN FAHRENHEIT
RH     - RELATIVE HUMIDITY IN PERCENT
WIND   - DIRECTION AND SPEED IN MILES PER HOUR (MPH)
VRB    - VARIABLE WIND DIRECTION
PRES   - MEAN SEA LEVEL PRESSURE IN INCHES OF MERCURY
         F - FALLING PRESSURE   R - RISING PRESSURE
         S - STEADY PRESSURE
VSB    - VISIBILITY IN MILES
HX     - HEAT INDEX IN FAHRENHEIT
WCI    - WIND CHILL INDEX IN FAHRENHEIT
TC     - TEMPERATURE IN CELSIUS WHICH IS ALSO KNOWN AS
         TEMPERATURE IN CENTIGRADE
AFB    - AIR FORCE BASE
         LUKE AFB IS LUKE AIR FORCE BASE
         DAVIS-MONTHAN IS DAVIS-MONTHAN AIR FORCE BASE
NAS    - NAVAL AIR STATION
         EL CENTRO NAS IS EL CENTRO NAVAL AIR STATION
N/A    - NOT AVAILABLE





USA.gov is the U.S. government's official web portal to all federal, state and local government web resources and services.